When you browse on this site, cookies collect data to enhance your experience and personalize the content and advertising you see.
Visit our Privacy Policy to learn more. By continuing to use the site, you agree to this use of cookies and data.
  • In United Kingdom
  • List of Countries
  • For 7 days
  • Water Temperature
  • Weather Map
  • Weather Widgets
  • user-avatar
    Login

    Hourly Weather Wiesbaden

    Today, 27 January, Monday

    Time Temperature Precipitation Wind Pressure Humidity
    00:00 +2°C° 0 mm 2 mps 748 mmHg 95%
    01:00 +3°C° 0 mm 1 mps 748 mmHg 96%
    02:00 +3°C° 0 mm 1 mps 748 mmHg 97%
    03:00 +3°C° 0 mm 2 mps 747 mmHg 97%
    04:00 +3°C° 0 mm 2 mps 747 mmHg 97%
    05:00 +3°C° 0 mm 2 mps 746 mmHg 97%
    06:00 +3°C° 0 mm 2 mps 746 mmHg 97%
    07:00 +4°C° 0 mm 2 mps 746 mmHg 96%
    08:00 +3°C° 0 mm 3 mps 746 mmHg 95%
    09:00 +3°C° 0 mm 3 mps 745 mmHg 94%
    10:00 +4°C° 0 mm 3 mps 745 mmHg 93%
    11:00 +4°C° 0 mm 3 mps 745 mmHg 91%
    12:00 +5°C° 0 mm 3 mps 744 mmHg 89%
    13:00 +5°C° 0 mm 3 mps 743 mmHg 87%
    14:00 +5°C° 0.4 mm 4 mps 743 mmHg 88%
    15:00 +5°C° 0.4 mm 4 mps 742 mmHg 89%
    16:00 +5°C° 0.4 mm 4 mps 741 mmHg 90%
    17:00 +5°C° 0.6 mm 4 mps 741 mmHg 91%
    18:00 +5°C° 0.6 mm 4 mps 740 mmHg 92%
    19:00 +5°C° 0.6 mm 4 mps 740 mmHg 92%
    20:00 +5°C° 0.3 mm 4 mps 739 mmHg 92%
    21:00 +5°C° 0.3 mm 4 mps 738 mmHg 92%
    22:00 +5°C° 0.3 mm 4 mps 737 mmHg 92%
    23:00 +6°C° 0.4 mm 4 mps 736 mmHg 91%

    Tomorrow, 28 January, Tuesday

    Time Temperature Precipitation Wind Pressure Humidity
    00:00 +6°C° 0.4 mm 5 mps 736 mmHg 90%
    01:00 +6°C° 0.4 mm 5 mps 735 mmHg 89%
    02:00 +6°C° 1.2 mm 5 mps 734 mmHg 88%
    03:00 +5°C° 1.2 mm 6 mps 733 mmHg 87%
    04:00 +5°C° 1.2 mm 6 mps 733 mmHg 86%
    05:00 +4°C° 0.1 mm 6 mps 732 mmHg 85%
    06:00 +4°C° 0.1 mm 6 mps 732 mmHg 83%
    07:00 +4°C° 0.1 mm 6 mps 732 mmHg 82%
    08:00 +4°C° 0.5 mm 6 mps 732 mmHg 79%
    09:00 +3°C° 0.5 mm 7 mps 732 mmHg 76%
    10:00 +2°C° 0.5 mm 8 mps 732 mmHg 73%
    11:00 +2°C° 0.1 mm 8 mps 733 mmHg 71%
    12:00 +2°C° 0.1 mm 9 mps 734 mmHg 68%
    13:00 +2°C° 0.1 mm 9 mps 735 mmHg 66%
    14:00 +2°C° 0.2 mm 9 mps 735 mmHg 63%
    15:00 +2°C° 0.2 mm 8 mps 736 mmHg 60%
    16:00 +1°C° 0.2 mm 8 mps 736 mmHg 58%
    17:00 +2°C° 0 mm 7 mps 737 mmHg 63%
    18:00 0°C° 0 mm 7 mps 737 mmHg 68%
    19:00 +1°C° 0 mm 6 mps 737 mmHg 73%
    20:00 +1°C° 0 mm 6 mps 737 mmHg 76%
    21:00 +1°C° 0 mm 5 mps 737 mmHg 78%
    22:00 +1°C° 0 mm 5 mps 737 mmHg 81%
    23:00 +1°C° 0.6 mm 5 mps 737 mmHg 84%

    Day after tomorrow, 29 January, Wednesday

    Time Temperature Precipitation Wind Pressure Humidity
    00:00 0°C° 0.6 mm 5 mps 737 mmHg 88%
    01:00 0°C° 0.6 mm 5 mps 737 mmHg 91%
    02:00 0°C° 0.1 mm 5 mps 737 mmHg 87%
    03:00 0°C° 0.1 mm 5 mps 738 mmHg 83%
    04:00 0°C° 0.1 mm 5 mps 739 mmHg 78%
    05:00 0°C° 0 mm 5 mps 739 mmHg 79%
    06:00 0°C° 0 mm 5 mps 740 mmHg 79%
    07:00 -1°C° 0 mm 5 mps 741 mmHg 80%
    08:00 0°C° 0 mm 5 mps 741 mmHg 78%
    09:00 0°C° 0 mm 5 mps 742 mmHg 77%
    10:00 +1°C° 0 mm 5 mps 742 mmHg 75%
    11:00 +1°C° 0 mm 5 mps 743 mmHg 72%
    12:00 +2°C° 0 mm 6 mps 743 mmHg 70%
    13:00 +2°C° 0 mm 6 mps 743 mmHg 67%
    14:00 +2°C° 0 mm 5 mps 744 mmHg 67%
    15:00 +2°C° 0 mm 5 mps 744 mmHg 68%
    16:00 +2°C° 0 mm 5 mps 744 mmHg 69%
    17:00 +1°C° 0 mm 4 mps 745 mmHg 71%
    18:00 0°C° 0 mm 4 mps 745 mmHg 74%
    19:00 +1°C° 0 mm 3 mps 746 mmHg 76%
    20:00 +1°C° 0 mm 3 mps 747 mmHg 78%
    21:00 0°C° 0 mm 3 mps 747 mmHg 79%
    22:00 0°C° 0 mm 3 mps 748 mmHg 81%
    23:00 0°C° 0 mm 3 mps 748 mmHg 83%

    30 January, Thursday

    Time Temperature Precipitation Wind Pressure Humidity
    00:00 0°C° 0 mm 3 mps 749 mmHg 85%
    01:00 0°C° 0 mm 3 mps 749 mmHg 87%
    02:00 0°C° 0 mm 3 mps 749 mmHg 88%
    03:00 0°C° 0 mm 3 mps 749 mmHg 89%
    04:00 0°C° 0 mm 3 mps 749 mmHg 89%
    05:00 0°C° 0 mm 3 mps 749 mmHg 90%
    06:00 0°C° 0 mm 3 mps 749 mmHg 90%
    07:00 0°C° 0 mm 3 mps 749 mmHg 90%
    08:00 0°C° 0 mm 3 mps 749 mmHg 88%
    09:00 +1°C° 0 mm 3 mps 749 mmHg 86%
    10:00 +1°C° 0 mm 4 mps 750 mmHg 84%
    11:00 +3°C° 0 mm 4 mps 749 mmHg 81%
    12:00 +3°C° 0 mm 4 mps 749 mmHg 78%
    13:00 +4°C° 0 mm 3 mps 748 mmHg 75%
    14:00 +4°C° 0 mm 3 mps 748 mmHg 76%
    15:00 +4°C° 0 mm 3 mps 747 mmHg 77%
    16:00 +5°C° 0 mm 2 mps 746 mmHg 78%
    17:00 +4°C° 0 mm 2 mps 746 mmHg 80%
    18:00 +3°C° 0 mm 2 mps 746 mmHg 83%
    19:00 +2°C° 0 mm 2 mps 745 mmHg 86%
    20:00 +3°C° 0 mm 2 mps 745 mmHg 85%
    21:00 +2°C° 0 mm 3 mps 744 mmHg 83%
    22:00 +2°C° 0 mm 3 mps 744 mmHg 82%
    23:00 +2°C° 0 mm 3 mps 743 mmHg 85%

    31 January, Friday

    Time Temperature Precipitation Wind Pressure Humidity
    00:00 +3°C° 0 mm 4 mps 743 mmHg 88%
    01:00 +4°C° 0 mm 4 mps 742 mmHg 90%
    02:00 +5°C° 0 mm 4 mps 742 mmHg 91%
    03:00 +6°C° 0 mm 4 mps 742 mmHg 92%
    04:00 +6°C° 0 mm 4 mps 741 mmHg 93%
    05:00 +7°C° 0 mm 4 mps 741 mmHg 93%
    06:00 +8°C° 0 mm 4 mps 742 mmHg 92%
    07:00 +8°C° 0 mm 4 mps 742 mmHg 92%
    08:00 +10°C° 0 mm 4 mps 742 mmHg 91%
    09:00 +10°C° 0 mm 4 mps 743 mmHg 90%
    10:00 +11°C° 0 mm 4 mps 744 mmHg 88%
    11:00 +10°C° 0 mm 5 mps 744 mmHg 84%
    12:00 +12°C° 0 mm 5 mps 745 mmHg 80%
    13:00 +13°C° 0 mm 5 mps 745 mmHg 75%
    14:00 +12°C° 0 mm 5 mps 745 mmHg 77%
    15:00 +12°C° 0 mm 4 mps 745 mmHg 79%
    16:00 +12°C° 0 mm 3 mps 746 mmHg 81%
    17:00 +11°C° 0 mm 3 mps 746 mmHg 83%
    18:00 +11°C° 0 mm 3 mps 746 mmHg 86%
    19:00 +10°C° 0 mm 3 mps 746 mmHg 89%
    20:00 +10°C° 0 mm 3 mps 747 mmHg 90%
    21:00 +10°C° 0 mm 3 mps 747 mmHg 91%
    22:00 +9°C° 0 mm 2 mps 747 mmHg 93%
    23:00 +10°C° 0 mm 2 mps 747 mmHg 94%

    1 February, Saturday

    Time Temperature Precipitation Wind Pressure Humidity
    00:00 +10°C° 0 mm 2 mps 747 mmHg 94%
    01:00 +10°C° 0 mm 2 mps 747 mmHg 95%
    02:00 +10°C° 0 mm 2 mps 747 mmHg 95%
    03:00 +10°C° 0 mm 2 mps 747 mmHg 96%
    04:00 +10°C° 0 mm 2 mps 746 mmHg 96%
    05:00 +10°C° 0.1 mm 2 mps 746 mmHg 96%
    06:00 +10°C° 0.1 mm 3 mps 746 mmHg 96%
    07:00 +10°C° 0.1 mm 3 mps 746 mmHg 96%
    08:00 +10°C° 0.2 mm 3 mps 746 mmHg 95%
    09:00 +10°C° 0.2 mm 3 mps 746 mmHg 94%
    10:00 +10°C° 0.2 mm 3 mps 746 mmHg 93%
    11:00 +10°C° 0.1 mm 4 mps 746 mmHg 90%
    12:00 +11°C° 0.1 mm 4 mps 745 mmHg 87%
    13:00 +10°C° 0.1 mm 5 mps 745 mmHg 84%
    14:00 +10°C° 0.3 mm 5 mps 745 mmHg 85%
    15:00 +10°C° 0.3 mm 5 mps 744 mmHg 86%
    16:00 +10°C° 0.3 mm 5 mps 744 mmHg 87%
    17:00 +10°C° 0.3 mm 5 mps 744 mmHg 87%
    18:00 +10°C° 0.3 mm 5 mps 744 mmHg 87%
    19:00 +12°C° 0.3 mm 5 mps 745 mmHg 87%
    20:00 +12°C° 0 mm 5 mps 745 mmHg 87%
    21:00 +12°C° 0 mm 5 mps 745 mmHg 87%
    22:00 +11°C° 0 mm 4 mps 746 mmHg 87%
    23:00 +11°C° 0.1 mm 4 mps 746 mmHg 87%
    Show more